DELTA 1 DEB, 2224

Orbit data source: Space-Track

DELTA 1 DEB, 2224 is space debris in SSO originally from a launch on Mon, 28 Feb 1966 UTC launched from the Air Force Eastern Test Range (AFETR). Debris objects in space refer to the collection of defunct objects orbiting the Earth. Examples of debris include non-operational satellites, rocket bodies, and fragments generated from explosions, collisions, or faulty payload assembly.

Loading next visibility...
Identifier
2224, 1966-016D
Orbit
SSO
Country
Flag of USUS
Related business
Manufacturer
Unknown
Mission
Spacecraft
Bus & Motor
Unknown
Mass
1 kg wet, 1 kg dry
Launch date (UTC)
1966-02-28 (60 years ago)
Launch vehicle
Unknown
Launch site
Air Force Eastern Test Range (AFETR)
Object type
Payload
Rocket body
Debris
Shape & HBR
Unknown
Radar Cross Section
Small (<0.1 m²)

Expand to show TLE details & history
Last TLE update: 9 hours ago

TLE from 9 hours ago
0 DELTA 1 DEB
1  2224U 66016D   26119.70304707 -.00000039  00000-0  15897-4 0  9993
2  2224 101.1554  42.1928 0137626 320.2999  67.9777 12.52173425739839
Epoch: 2026-04-29T16:52Z
TLE epoch observation values (Epoch: 2026-04-29T16:52:23.266Z)
Latitude
29.17799°
Longitude
-74.85465°
Altitude
1,419.631 km
Speed
7.171 km/s
True Right ascension
02h 23m 36s
True Declination
29° 02' 39"
Sunlit
Object was in daylight at epoch
Visualization orbit readout
Latitude
Unknown
Longitude
Unknown
Altitude
Unknown
Speed
Unknown
Apparent Right ascension
Unknown
Apparent Declination
Unknown
Sunlit
N/A
Visualization observer readout
Local Sidereal Time
09:32:06
Azimuth
Unknown
Elevation
Unknown
Doppler factor
Unknown
Orbital elements
Apogee altitude
1,560.702 km
Perigee altitude
1,345.151 km
Semi-major axis
7,831.063 km
Eccentricity
0.01376
Inclination
101.1554°
RAAN
42.1928°
Arg. of periapsis
320.2999°
True anomaly
69.44904°
Mean anomaly
67.9777°
Eccentric anomaly
68.71244°
Mean motion
3.13193 °/min
Orbital period
114.95 mins
BSTAR
0.000015897
Loading maneuver chart data...
Computing Atmospheric mass density...
Loading historical data...
Loading historical data...
Loading historical data...
Loading historical data...
Loading historical data...
Loading historical data...
Loading historical data...
Other satellites on launch #16 in the year 1966 (1966-02-28 UTC)

Documentation

Showing up to 5 results
|